Home   Weather   Tirana   Past weeks

Flag for Albania Past Weather in Tirana, Albania — Yesterday and Last 2 Weeks

59 °F

Partly sunny.

Feels Like: 59 °F
Forecast: 60 / 72 °F
Wind: 2 mph from South

Location: Tirana Airport

Current Time: Oct 26, 2016 at 9:35:11 AM

Latest Report: Oct 26, 2016 at 8:50 AM

Visibility: 5 mi

Pressure: 30.12 "Hg

Humidity: 94%

Dew Point: 57 °F

Location of TiranaLocation

Past Weather in Tirana — Graph


Tirana Temperature Yesterday

Maximum temperature yesterday: 82 °F (at 2:50 PM)
Minimum temperature yesterday: 52 °F (at 6:20 AM)
Average temperature yesterday: 64 °F

High & Low Weather Summary for the Past Weeks

High82 °F (Oct 17, 2:50 PM)100% (Oct 11, 9:20 PM)30.27 "Hg (Oct 11, 9:20 PM)
Low46 °F (Oct 13, 4:20 AM)30% (Oct 13, 4:20 PM)29.68 "Hg (Oct 12, 3:20 AM)
Average63 °F78%30.06 "Hg
* Reported Oct 11 8:20 AM — Oct 26 8:20 AM, Tirana, Weather by CustomWeather, © 2016

Note: Actual official high and low records may vary slightly from our data, if they occured in-between our weather recording intervals... More about our weather records


Tirana Weather History for the Previous 24 Hours

Scroll right to see more
Time TempWeatherWind HumidityBarometerVisibility
8:20 AM
Wed, Oct 26
57 °FClear.2 mph94%30.12 "Hg4 mi
7:50 AM55 °FClear.No wind94%30.12 "Hg4 mi
7:20 AM55 °FSunny.No wind94%30.12 "Hg10 mi
6:50 AM55 °FClear.2 mph94%30.12 "Hg4 mi
6:20 AM55 °FClear.2 mph100%30.12 "Hg5 mi
5:50 AM55 °FClear.3 mph94%30.12 "Hg4 mi
5:20 AM55 °FClear.2 mph94%30.12 "Hg10 mi
4:50 AM57 °FClear.2 mph94%30.12 "Hg10 mi
4:20 AM55 °FClear.3 mph100%30.12 "Hg10 mi
3:50 AM55 °FClear.3 mph94%30.12 "Hg10 mi
3:20 AM57 °FClear.2 mph94%30.15 "Hg10 mi
2:50 AM55 °FClear.2 mph94%30.15 "Hg10 mi
2:20 AM57 °FClear.2 mph94%30.15 "Hg10 mi
1:50 AM55 °FClear.2 mph94%30.15 "Hg10 mi
1:20 AM57 °FClear.3 mph94%30.18 "Hg10 mi
12:50 AM57 °FClear.2 mph94%30.18 "Hg4 mi
12:20 AM57 °FClear.2 mph94%30.18 "Hg5 mi
11:50 PM
Tue, Oct 25
59 °FClear.2 mph94%30.21 "Hg4 mi
11:20 PM57 °FClear.2 mph94%30.21 "Hg10 mi
10:50 PM59 °FClear.3 mph94%30.21 "Hg10 mi
10:20 PM59 °FClear.3 mph94%30.21 "Hg10 mi
9:50 PM59 °FClear.2 mph94%30.21 "Hg10 mi
9:20 PM61 °FClear.2 mph88%30.21 "Hg10 mi
8:50 PM61 °FClear.No wind88%30.21 "Hg10 mi
8:20 PM61 °FPassing clouds.3 mph88%30.21 "HgN/A
7:50 PM61 °FClear.2 mph88%30.21 "Hg10 mi
7:20 PM63 °FClear.No wind83%30.21 "Hg10 mi
6:50 PM64 °FClear.2 mph78%30.21 "Hg10 mi
6:20 PM66 °FClear.7 mph73%30.21 "Hg10 mi
5:50 PM68 °FClear.8 mph69%30.21 "Hg10 mi
5:20 PM72 °FSunny.6 mph57%30.21 "Hg10 mi
4:50 PM73 °FSunny.7 mph57%30.21 "Hg10 mi
4:20 PM75 °FPassing clouds.3 mph47%30.21 "HgN/A
3:50 PM81 °FPassing clouds.5 mph48%30.21 "HgN/A
3:20 PM81 °FPassing clouds.3 mph48%30.21 "HgN/A
2:50 PM82 °FSunny.2 mph48%30.21 "Hg10 mi
2:20 PM81 °FSunny.2 mph48%30.21 "Hg10 mi
1:50 PM81 °FPassing clouds.3 mph48%30.24 "HgN/A
1:20 PM77 °FPassing clouds.5 mph51%30.24 "HgN/A
12:50 PM77 °FPassing clouds.6 mph54%30.27 "HgN/A
12:20 PM77 °FPassing clouds.6 mph51%30.27 "HgN/A
11:50 AM77 °FPassing clouds.5 mph54%30.27 "HgN/A
11:20 AM72 °FSunny.2 mph61%30.27 "Hg10 mi
10:50 AM70 °FSunny.No wind60%30.27 "Hg10 mi
10:20 AM66 °FSunny.No wind68%30.27 "Hg10 mi
9:50 AM66 °FSunny.No wind68%30.27 "Hg10 mi
9:20 AM64 °FSunny.2 mph78%30.27 "Hg10 mi
Weather by CustomWeather, © 2016

See weather overviewHow to use our weather pages